Погода в Гуаймасе

Мексика     27°55′13″N   110°54′10″W
темп.,
°C
ветер,
м/с
пор.,
м/с
влажн.,
%
обл.,
%
осадки,
мм/ч
давл.,
гПа
погр.,
м
8 марта, пн
пн823:00+17юв125158 0.0 101723
02:00+16вюв125184 0.0 101723
05:00+16вюв115091 0.0 101623
08:00+19в2339100 0.0 101969
11:00+24ююв3325100 0.0 1019356
14:00+24ююз4424100 0.0 1018365
17:00+23юз222996 0.0 1016222
20:00+19ююв123798 0.0 101823
9 марта, вт
вт923:00+18юз123799 0.0 101823
02:00+17зсз1242100 0.0 101723
05:00+17ююз0043100 0.0 101623
08:00+20ю1138100 0.0 101834
11:00+24зюз3231100 0.0 1019408
14:00+25з4429100 0.0 1017591
17:00+24сз3329100 0.0 1015332
20:00+21сз3335100 0.0 101732
10 марта, ср
ср1023:00+20ссз3337100 0.0 101634
02:00+18ссз233284 0.0 101524
05:00+17ссз333362 0.0 101427
08:00+19ссз35330 0.0 1016202
11:00+23сз55265 0.0 1017635
14:00+24зсз772333 0.0 1015883
17:00+22зсз572317 0.0 1014517
20:00+18сз44300 0.0 101531
11 марта, чт
чт1123:00+17ссз44289 0.0 101652
02:00+15ссз45340 0.0 101580
05:00+14ссз344136 0.0 101449
08:00+15ссз3538100 0.0 1015214
11:00+19зсз333297 0.0 1016631
14:00+20з6435100 0.0 1015776
17:00+20зсз3428100 0.0 1014570
20:00+16зсз2234100 0.0 101528
12 марта, пт
пт1223:00+15зсз4546100 0.0 1016176
02:00+12ссз2268100 0.0 1016112
05:00+12сз455983 0.0 1017146
08:00+13ссз35570 0.0 1018330
11:00+17зсз44440 0.0 10191087
14:00+17з88410 0.0 10181027
17:00+17зсз710340 0.0 10171501
20:00+14сз611450 0.0 1019636